STARLINK-11745 [DTC]

Last updated on Thu Jul 03 2025 00:02:06 GMT+0000 (Coordinated Universal Time)

1 64376U 25127G 25183.58335648 -.00098295 00000+0 -56733-3 0 9995 2 64376 43.0011 154.7451 0001382 275.6497 228.4696 15.77902205 4096
UTC large
Height (km)
Speed (km/s)
/
Latitude / Longitude
Inclination (degrees)
Orbital Period (minutes)
Azimuth
Elevation
Range (km)
Doppler Factor

Next 0 passes for location: London (51.5072 / 0.1276)

Sorry there are no passes over London.